Location: Rancho Del Sol Observatory
(38.7214°N, 120.6350°W)
Time: 09:44:36
(UTC-08:00)

A-11 Canister half - Pass Details

Date: 06 February 2020
Orbit: 1517 x 1683 km, 47.2° (Epoch: 22 February)

Event Time Altitude Azimuth Distance (km) Brightness Sun altitude
Rises 21:42:02 0° 263° (W) 4,809 12.1 -48.9°
Reaches altitude 10° 21:45:16 10° 267° (W) 3,801 11.5 -49.5°
Enters shadow 21:50:27 35° 284° (WNW) 2,355 10.1 -50.4°
Maximum altitude 21:54:43 58° 345° (NNW) 1,780 - -51.2°
Drops below altitude 10° 22:03:54 10° 64° (ENE) 3,696 - -52.8°
Sets 22:07:00 0° 68° (ENE) 4,669 - -53.3°
